Theta_e
294 291 289 291 291 290 288 287 286 290 293 290 290 290 293 296 297 297 299 300 301 302 305 305 306 310 316 318 320 318 325 340 342 340 337 337 337 339 339 340 342 342 339 339
292 289 291 291 290 288 288 286 287 290 292 291 290 290 294 295 297 300 300 300 301 302 303 305 309 311 313 314 316 319 327 333 342 341 338 338 338 338 339 340 341 342 342 341
289 290 291 290 290 288 289 287 287 287 290 292 290 288 291 295 299 296 298 298 298 296 298 302 304 308 310 311 312 315 322 335 340 341 341 339 339 339 338 339 338 340 341 342
291 292 290 290 288 289 285 291 289 287 286 283 291 281 289 293 294 293 292 293 293 293 294 296 299 302 303 305 308 313 320 324 333 337 339 340 338 336 339 340 341 340 341 341
290 290 290 288 289 290 287 291 289 288 287 287 286 284 288 291 287 288 289 289 290 291 292 293 295 298 299 300 302 306 312 318 324 331 328 336 338 340 341 339 339 338 338 341
292 295 292 292 292 292 292 290 290 290 288 281 285 286 285 283 283 286 288 288 289 288 290 292 294 296 296 299 299 302 304 307 313 319 318 323 333 339 337 338 337 336 336 336
291 290 293 293 290 292 290 287 283 280 281 280 287 285 280 285 286 286 286 287 288 289 287 289 290 292 294 296 297 300 300 301 305 309 311 313 316 321 324 326 330 335 334 335
287 284 290 294 291 289 289 288 282 275 278 281 287 282 281 287 288 288 287 287 287 287 286 286 288 290 292 293 296 296 297 298 301 303 306 308 311 313 315 315 319 321 327 335
284 286 293 293 295 293 289 285 290 284 286 282 286 283 287 288 286 286 285 285 284 285 285 286 287 288 289 292 292 294 295 295 297 300 303 304 305 309 312 314 319 319 323 325
289 283 292 293 295 295 292 294 284 286 278 277 284 280 280 282 282 284 283 283 284 284 284 284 285 287 288 290 293 294 295 295 295 296 300 301 302 304 305 308 308 307 312 316
291 288 288 292 290 288 290 289 288 288 287 280 280 279 284 282 283 282 282 283 283 283 284 283 284 285 287 287 289 291 293 294 294 295 295 297 298 300 300 300 300 301 304 309
292 289 284 287 294 296 294 290 290 284 282 286 285 279 286 284 285 284 283 283 283 284 284 284 284 284 285 285 287 288 290 292 293 294 294 294 294 295 295 296 297 298 300 302
293 287 283 285 291 291 288 290 292 291 291 285 282 279 285 285 284 284 282 282 283 283 284 283 283 283 283 285 285 287 288 290 292 293 292 292 292 293 293 293 294 295 296 297
295 289 284 281 280 285 282 286 290 288 286 284 280 278 280 282 282 283 282 282 282 282 283 283 283 283 283 285 284 285 286 288 291 291 292 291 291 291 292 293 293 292 293 292
293 285 285 286 286 285 283 283 285 283 284 282 279 277 279 280 281 281 282 281 281 281 281 282 281 282 283 283 285 286 286 288 289 289 290 292 293 291 291 292 293 293 292 291
293 286 287 284 287 285 281 283 284 283 282 281 280 277 282 282 282 281 280 280 279 280 280 280 281 281 282 283 284 286 286 286 288 287 288 290 292 294 292 291 291 292 292 291
289 287 286 283 285 285 279 280 282 283 284 284 280 280 282 280 279 279 279 279 279 279 280 279 279 280 281 282 284 284 287 287 287 286 286 287 290 290 292 293 292 291 289 290
288 287 286 285 285 277 281 286 285 282 283 284 282 282 283 281 280 280 280 279 279 279 279 280 279 279 281 283 284 285 286 286 285 284 284 285 287 287 289 289 289 290 290 289
292 288 286 283 282 281 282 284 283 283 280 284 284 283 283 282 284 280 280 280 279 280 281 281 282 281 281 282 284 283 283 283 283 282 282 283 284 285 285 285 286 288 288 287
290 292 286 285 279 277 282 284 287 288 280 284 285 285 285 284 282 280 279 280 279 281 282 282 282 283 282 282 284 283 282 282 282 283 283 283 284 284 283 284 285 286 287 287
285 286 284 284 281 281 284 286 289 279 279 285 285 285 286 283 281 279 279 279 279 281 281 283 282 281 282 283 283 282 283 282 283 284 284 284 284 284 284 284 285 285 285 285
283 283 283 284 281 278 285 286 283 285 287 287 286 286 283 282 281 280 278 279 279 280 281 282 281 281 282 282 282 281 281 284 285 284 284 284 284 283 283 283 284 285 285 285
283 286 285 282 281 285 286 287 290 290 287 286 286 286 285 282 281 280 280 279 279 280 281 281 281 281 281 281 281 280 282 284 284 284 283 284 284 285 285 283 282 282 283 283
286 288 285 283 282 284 285 287 288 289 288 287 286 285 285 282 282 280 280 279 279 279 279 280 280 279 279 280 280 280 282 283 283 282 282 283 283 283 284 283 281 279 279 279
289 289 284 281 283 285 285 286 287 286 286 285 285 284 283 282 281 280 279 278 278 278 278 278 278 277 278 279 279 280 281 282 281 281 281 281 282 282 282 282 281 279 278 278
290 287 286 286 286 287 285 287 287 284 283 283 282 281 282 282 280 280 278 278 278 277 277 277 276 276 277 278 278 278 280 280 280 279 280 280 281 281 281 281 281 278 277 277
Wind_Speed
1 7 8 9 8 11 14 16 21 17 12 16 17 25 27 24 19 19 18 18 20 23 24 21 20 15 14 18 15 17 19 19 16 16 16 14 14 14 13 13 16 16 13 15
6 6 3 3 5 8 12 16 20 17 5 15 20 25 26 16 16 19 17 17 18 20 20 20 18 15 13 14 13 16 19 20 18 16 15 14 14 13 13 12 14 16 17 16
6 3 2 7 8 9 13 15 18 22 19 17 11 19 13 14 12 16 18 20 19 18 19 19 17 14 12 13 13 14 15 15 17 17 13 14 12 11 11 12 13 15 17 17
6 1 5 7 8 7 13 7 11 13 15 13 13 14 20 10 13 19 17 18 19 19 17 16 16 14 13 13 12 13 12 12 8 11 13 19 16 14 11 11 11 12 16 18
6 4 6 8 5 3 5 6 10 11 14 17 10 10 6 17 17 22 20 20 18 18 17 17 15 13 13 13 12 11 13 8 6 4 3 8 13 11 10 8 10 9 11 17
11 2 6 10 5 7 8 9 12 11 9 7 2 7 10 12 17 19 20 19 20 20 16 16 15 13 12 12 13 11 11 11 10 9 11 15 11 10 7 5 6 6 6 7
3 7 5 9 10 4 4 7 3 4 6 6 4 12 8 14 15 14 19 20 19 19 19 15 17 14 14 14 13 11 12 13 12 12 13 13 7 7 7 4 4 3 6 7
3 8 11 10 7 7 3 7 5 7 6 11 5 3 6 8 12 16 16 17 20 21 18 18 16 15 15 15 14 13 14 13 15 13 13 11 12 6 5 7 4 4 5 5
2 5 5 9 10 6 3 6 2 8 10 7 4 5 4 14 15 14 18 20 19 18 18 17 16 15 15 14 14 14 15 15 15 17 13 13 13 12 10 9 7 5 6 5
3 6 5 3 3 12 12 7 5 5 6 6 5 4 6 14 16 15 17 18 19 18 18 18 17 16 17 15 13 15 17 18 20 17 15 13 14 14 13 11 10 12 11 12
2 5 2 6 4 6 6 10 9 6 6 5 6 6 6 9 12 13 14 15 16 17 17 17 18 18 15 17 16 17 16 17 15 16 18 14 15 15 12 13 14 15 13 14
2 3 5 8 6 4 8 11 13 6 5 4 3 5 7 8 10 11 13 14 15 14 16 16 17 17 18 20 20 20 18 18 18 17 15 15 17 17 16 17 16 16 15 14
5 4 5 2 6 5 5 4 11 10 8 7 4 6 6 8 10 12 14 14 14 16 17 17 18 18 18 18 19 19 18 18 16 19 21 20 20 16 18 17 16 15 14 15
6 3 2 2 3 7 11 15 14 10 4 6 5 8 7 9 11 13 14 14 14 15 18 18 15 16 18 18 19 18 19 20 20 21 18 16 17 15 13 14 14 15 15 16
3 4 7 12 9 12 10 12 10 5 5 3 7 6 7 8 9 11 11 13 15 17 19 19 20 19 19 20 18 19 16 17 17 16 17 17 14 15 15 15 15 14 16 15
4 4 5 8 7 5 11 14 8 13 14 13 12 8 5 6 7 9 11 12 14 15 16 17 18 20 21 20 18 19 19 17 16 17 17 17 17 18 17 15 16 17 17 16
3 2 4 5 5 5 2 8 8 11 11 4 4 7 6 6 8 10 11 11 13 14 16 17 17 16 15 15 15 16 17 17 17 17 18 18 17 18 18 18 18 18 16 17
1 1 3 2 7 5 7 7 10 12 9 9 10 9 7 8 9 10 10 10 11 12 14 14 13 14 15 15 15 15 16 17 18 18 18 17 17 17 18 18 18 18 16 17
4 2 3 4 1 7 8 5 3 3 5 4 5 9 9 9 6 12 10 9 9 10 10 10 10 10 12 14 14 14 15 16 17 16 17 17 19 19 19 19 18 16 16 16
5 3 4 4 4 7 6 4 2 3 5 3 1 4 9 10 4 5 7 8 8 9 10 10 11 11 12 13 14 15 15 16 15 15 15 15 15 15 15 15 15 15 14 13
4 3 4 3 2 5 3 2 4 6 5 5 6 5 4 5 7 6 4 6 6 7 11 9 11 12 13 13 13 15 15 14 13 14 12 14 14 13 14 14 13 12 11 12
2 3 3 3 3 4 3 5 5 8 9 9 10 11 13 12 10 8 6 5 7 8 10 10 10 11 13 14 13 14 15 14 13 13 14 14 12 13 11 14 13 13 13 12
3 4 3 5 5 5 6 9 10 9 11 10 11 10 10 10 9 7 7 7 8 9 9 9 10 11 13 14 14 15 15 15 15 15 16 15 16 13 12 14 14 13 13 12
3 2 3 5 4 6 7 7 7 8 10 10 10 10 8 9 8 8 7 8 8 9 9 9 10 12 12 13 13 14 14 14 13 14 14 13 13 13 13 11 11 11 12 12
3 6 6 5 6 7 4 7 10 11 12 11 10 9 9 9 8 8 8 7 7 8 8 8 9 10 11 11 12 13 14 14 13 13 12 13 11 12 11 10 9 10 11 13
5 6 4 2 12 2 12 11 11 12 11 10 11 10 8 8 9 8 8 7 7 7 7 8 9 9 10 11 11 12 13 13 13 11 10 10 9 9 10 9 8 13 11 16
Wind_Direction
208 257 254 316 307 296 291 287 289 291 305 300 292 294 301 307 308 297 296 298 307 313 315 294 290 298 305 297 307 269 241 211 207 202 194 197 203 203 203 205 204 201 201 211
207 252 11 294 277 268 270 279 282 290 257 302 297 300 294 305 351 21 355 332 328 326 325 319 323 324 322 315 311 293 264 221 207 204 200 198 203 204 209 202 205 210 201 200
274 52 268 281 279 266 267 275 288 295 312 281 293 296 321 335 43 18 354 339 338 333 325 320 315 313 329 327 325 309 287 263 210 212 201 193 203 206 204 205 213 210 210 205
271 108 275 284 283 278 284 307 292 295 313 314 326 296 304 353 346 1 349 346 342 335 333 328 327 323 338 338 330 319 297 261 266 239 206 194 184 194 204 210 211 209 213 212
81 253 273 275 284 269 299 292 293 295 292 302 293 276 323 11 352 344 348 347 346 342 335 335 334 335 347 347 344 343 334 343 310 216 8 194 194 202 194 202 217 205 211 222
267 251 269 239 283 260 282 294 272 268 279 258 337 282 68 11 343 343 350 349 352 354 340 338 338 347 358 355 351 355 5 7 13 30 48 67 297 221 209 211 191 194 199 207
256 203 220 233 257 184 223 278 290 241 198 273 328 301 44 4 4 353 351 349 358 3 355 338 347 358 3 3 357 358 10 19 26 46 47 57 68 53 58 52 25 233 197 208
343 186 205 175 265 318 272 294 298 289 314 318 330 325 60 18 13 359 2 354 357 2 1 349 348 353 5 10 5 10 25 17 21 34 48 52 48 41 45 20 7 318 316 232
218 236 191 218 262 251 103 238 338 275 255 263 102 103 234 23 9 1 4 0 359 359 358 350 347 359 4 9 10 16 29 29 26 22 31 39 38 31 24 13 357 331 320 314
116 273 262 105 272 231 236 298 224 211 275 297 95 111 9 4 0 358 4 359 355 359 359 355 358 354 4 8 13 23 31 34 32 16 25 35 35 32 24 22 5 360 351 330
208 235 175 287 215 298 223 222 230 267 266 284 298 91 18 20 6 4 4 359 354 356 357 359 359 2 5 6 15 24 29 36 36 26 37 29 40 32 26 27 17 12 340 351
144 242 284 297 342 335 262 247 232 246 212 253 305 97 30 36 17 16 7 3 356 358 358 360 3 1 5 13 16 21 16 24 28 32 34 32 39 30 23 27 16 10 7 354
155 178 291 93 163 60 312 280 267 291 296 250 280 95 44 36 26 26 9 5 2 5 7 6 5 5 9 13 13 17 18 19 23 27 32 25 29 23 23 22 18 17 9 8
197 95 294 25 357 311 312 313 267 248 253 113 47 111 45 32 28 21 9 9 7 16 13 11 9 9 11 10 18 11 13 12 19 27 31 29 28 23 24 26 28 26 23 18
185 157 139 138 107 51 10 14 26 74 27 357 116 97 58 38 32 27 10 8 13 16 16 14 11 11 13 13 15 21 19 18 23 26 29 28 33 34 30 30 28 31 33 29
155 149 204 186 198 99 31 21 59 84 92 98 116 97 83 73 46 32 23 16 16 14 17 15 15 17 16 10 8 18 19 21 24 27 26 23 25 29 35 37 38 35 34 29
123 316 213 154 177 188 160 8 49 72 47 136 111 108 134 98 64 36 23 25 22 16 13 15 16 14 12 11 16 19 23 25 28 29 27 23 23 25 28 31 33 36 34 32
163 242 261 150 185 196 114 116 86 77 60 79 106 141 134 113 96 59 33 22 24 20 17 16 15 13 12 11 18 20 22 28 29 29 27 24 24 26 25 29 29 32 32 33
214 310 260 250 91 108 162 173 208 318 82 40 148 163 156 162 175 72 34 31 28 23 25 22 25 27 15 18 21 26 26 26 30 25 24 21 23 22 22 24 22 25 30 26
183 205 251 196 223 211 91 144 233 297 152 35 83 157 182 190 241 68 27 24 32 26 31 27 28 30 34 21 22 28 27 25 21 25 21 24 24 25 21 19 19 20 21 25
204 208 245 192 233 115 73 183 176 242 96 109 83 94 128 108 52 99 71 51 35 28 36 30 38 34 26 22 34 27 27 29 25 17 30 24 25 23 22 20 21 19 17 21
230 229 194 204 209 189 45 170 251 111 124 118 95 91 98 109 116 102 82 68 70 49 39 34 37 36 32 28 25 30 24 21 27 29 25 29 28 26 23 23 17 18 14 21
181 345 14 351 37 90 59 89 118 124 125 121 113 108 111 115 113 111 97 72 56 51 45 35 35 36 34 30 24 25 16 10 17 24 22 21 21 27 22 20 21 17 14 17
136 127 99 190 117 114 104 99 105 114 120 119 119 120 128 117 109 101 84 72 62 50 41 33 36 35 32 27 25 22 12 8 16 24 22 16 24 12 22 32 20 25 16 13
48 155 136 84 132 130 132 119 117 115 115 114 109 112 114 121 112 106 95 82 67 57 47 37 34 32 29 24 24 19 11 9 13 19 19 11 16 15 17 36 34 31 36 24
182 153 198 113 160 247 153 143 136 132 128 123 123 122 119 123 123 122 109 93 77 62 47 43 36 30 26 24 24 15 9 10 10 16 9 18 10 11 13 12 14 77 47 32